Terminal Aerodrome Forecast
Issued by NWS

Current Version | Previous Version | Graphics & Text | Print | Product List | Glossary On
Versions: 1 2 3 4 5 6 7 8 9 10 11 12 13 14 15 16 17 18 19 20 21 22 23 24 25 26 27 28 29 30 31 32 33 34 35 36 37 38 39 40 41 42 43 44 45 46 47 48
000
FTUS41 KRNK 242330
TAFLWB
TAF
KLWB 242330Z 2500/2524 26008KT P6SM SCT050
     FM250200 28009G19KT P6SM BKN035
     FM250700 27006KT P6SM OVC030
     FM251600 23003KT P6SM BKN050
     FM252100 VRB03KT P6SM OVC080=

USA.gov is the U.S. government's official web portal to all federal, state and local government web resources and services.